User: anonymous   Login
Location: Newark
(48.1500°N, 2.9667°W)
Time: 14:37:30
(UTC+00:00)
Language:

deb Explorer IX - Orbit

View from above orbital plane
View from above orbital plane
View from above satellite
View from above satellite

Ground track
Ground track

The orbit data is extracted from the following two-line orbital elements,

1    85U 61004C   20016.87324284  .00003491  00000-0  78200-3 0  9998
2    85  38.7707  79.0539 0383906 203.1116 155.1939 14.20231813909379
Epoch (UTC): 16 January 2020 20:57:28
Eccentricity: 0.0383906
inclination: 38.7707°
perigee height: 548 km
apogee height: 1101 km
right ascension of ascending node: 79.0539°
argument of perigee: 203.1116°
revolutions per day: 14.20231813
mean anomaly at epoch: 155.1939°
orbit number at epoch: 90937

The dashed part of the orbit path shows where the satellite is in the earth's shadow,  

DLR